CZ-3B R/B (48809 NORAD) Tracking and Keplerian Element Data

This shows tracking and keplerian element data for the satellite.

Feedback or suggestion? Click here.




ElementValue
Catalog48809
NameCZ-3B R/B
Epoch Orbit40
Epoch Day170.16839055
Epoch Year2021
RAAN126.4348
Inclination28.6132
Eccentricity0.7223234
Argument of Perigee189.529
Mean Anonmoly140.2313
Mean Motion2.39861069
Decay Rate0.00050252
L11 48809U 21047B 21170.16839055 .00050252 -87949-6 13306-2 0 9994
L22 48809 28.6132 126.4348 7223234 189.5290 140.2313 2.39861069 400

Live tracking and technical data element details for CZ-3B R/B (NORAD 48809). CZ-3B R/B can be tracked NOW for your location showing map with azimuth and elevation plus other details from your city location.

Track the satellite on the map from your city or location and see movement details for azimuth, elevation, latitude, longitude, range, height, and movement on the map or in text.







IsCatalogInMostPopularTable: catalog: 48809, numindb: 2
Update: records affected: 1



GetName: 48809 CZ-3B R/B

Hit Count: updated at: Mon, 21 Jun 2021 03:30:59 GMT